This demonstration page uses our WeatherBlox Daily Observations layout. Learn more.

Left ArrowRight Arrow

Hourly Observations for October 6, 2018

Temp ( °F °C ) Dew Point ( °F °C ) Humidity (%) Winds ( mph kmh ) Pressure ( in mb ) Visibility ( mi km ) Precip ( " mm )
12:34 am 00:34 Mostly Clear 45 7 39 4 81 81 N 23 37 30.09 1019 10 16 0.00 0.00
12:51 am 00:51 Mostly Cloudy 45 7 39 4 81 81 N 21 33 30.06 1018 10 16 0.00 0.00
12:53 am 00:53 Mostly Cloudy 45 7.2 39 3.9 80 80 N 21 33 30.05 1018 10 16 0.00 0.00
1:53 am 01:53 Cloudy 45 7.2 39 3.9 80 80 N 21 33 30.07 1018 10 16 0.00 0.00
2:16 am 02:16 Cloudy 45 7.2 39 3.9 80 80 N 21 33 30.09 1019 10 16 0.00 0.00
2:48 am 02:48 Cloudy 45 7 39 4 81 81 NNE 18 30 30.09 1019 10 16 0.00 0.00
2:53 am 02:53 Cloudy 45 7.2 39 3.9 80 80 NNE 16 26 30.06 1018 10 16 0.00 0.00
3:53 am 03:53 Cloudy 44 6.7 40 4.4 85 85 NNW 9 15 30.11 1020 10 16 0.00 0.00
4:53 am 04:53 Cloudy 44 6.7 40 4.4 85 85 N 9 15 30.14 1021 10 16 0.00 0.00
5:41 am 05:41 Cloudy 44 6.7 36 2.2 73 73 N 16 26 30.15 1021 10 16 0.00 0.00
5:53 am 05:53 Mostly Cloudy 43 6.1 36 2.2 76 76 N 13 20 30.12 1020 10 16 0.00 0.00
6:11 am 06:11 Mostly Cloudy 43 6.1 36 2.2 76 76 N 14 22 30.15 1021 10 16 0.00 0.00
6:41 am 06:41 Partly Cloudy 42 5.6 36 2.2 79 79 N 12 19 30.15 1021 10 16 0.00 0.00
6:53 am 06:53 Mostly Clear 42 5.6 35 1.7 76 76 N 16 26 30.14 1021 10 16 0.00 0.00
7:53 am 07:53 Cloudy 41 5 35 1.7 79 79 N 10 17 30.15 1021 10 16 0.00 0.00
8:53 am 08:53 Mostly Sunny 42 5.6 36 2.2 79 79 N 14 22 30.16 1021 10 16 0.00 0.00
9:53 am 09:53 Sunny 43 6.1 35 1.7 74 74 N 17 28 30.19 1022 10 16 0.00 0.00
10:53 am 10:53 Sunny 45 7.2 35 1.7 68 68 N 14 22 30.18 1022 10 16 0.00 0.00
11:53 am 11:53 Sunny 49 9.4 36 2.2 61 61 N 13 20 30.19 1022 10 16 0.00 0.00
12:53 pm 12:53 Partly Cloudy 52 11.1 36 2.2 55 55 N 10 17 30.17 1022 10 16 0.00 0.00
1:53 pm 13:53 Sunny 54 12.2 36 2.2 51 51 ENE 8 13 30.15 1021 10 16 0.00 0.00
2:53 pm 14:53 Sunny 56 13.3 37 2.8 49 49 ENE 10 17 30.11 1020 10 16 0.00 0.00
3:53 pm 15:53 Sunny 57 13.9 36 2.2 45 45 NE 12 19 30.09 1019 10 16 0.00 0.00
4:53 pm 16:53 Sunny 57 13.9 36 2.2 45 45 NE 8 13 30.09 1019 10 16 0.00 0.00
5:53 pm 17:53 Sunny 56 13.3 35 1.7 46 46 NE 10 17 30.08 1019 10 16 0.00 0.00
6:53 pm 18:53 Cloudy 54 12.2 36 2.2 51 51 E 9 15 30.11 1020 10 16 0.00 0.00
7:53 pm 19:53 Cloudy 52 11.1 36 2.2 55 55 ENE 12 19 30.10 1019 10 16 0.00 0.00
8:53 pm 20:53 Cloudy 51 10.6 38 3.3 61 61 E 12 19 30.11 1020 10 16 0.00 0.00
9:53 pm 21:53 Cloudy 50 10 39 3.9 66 66 E 9 15 30.12 1020 10 16 0.00 0.00
10:53 pm 22:53 Cloudy 48 8.9 40 4.4 74 74 E 9 15 30.13 1020 10 16 0.00 0.00
11:53 pm 23:53 Cloudy 47 8.3 40 4.4 77 77 E 10 17 30.13 1020 10 16 0.00 0.00

Powered by AerisWeather